Wind_Speed
49 47 42 37 34 30 27 25 24 23 21 18 17 16 15 15 16 15 15 13 11 10 12 13 13 12 14 14 12 9 7 6 6 7 7 6 5 4 3 3 3 4 4 5 5 6 7 8 10 11 13 14 15 16 17 18 18 19 19 18 17 16 15
54 53 48 44 39 33 29 27 27 27 24 21 20 18 17 15 15 15 15 15 13 12 12 14 14 13 13 15 14 12 9 7 6 6 7 6 6 5 3 2 2 3 4 4 3 4 4 5 7 8 9 11 12 13 14 15 16 16 17 17 17 16 15
56 56 52 47 44 40 35 32 30 28 26 23 21 20 19 16 14 15 16 17 16 14 13 14 15 15 14 14 16 15 13 10 8 7 7 6 6 5 4 3 3 3 3 4 3 3 3 3 4 5 6 7 8 9 11 12 12 13 14 14 15 15 15
56 55 52 49 47 43 39 36 33 29 26 24 21 22 22 18 14 15 16 17 18 16 14 15 16 16 16 14 15 17 17 15 12 10 8 8 7 5 4 4 3 3 4 4 4 3 3 2 2 2 3 4 5 6 7 8 9 10 11 12 12 13 13
55 53 51 48 47 43 40 39 36 31 28 25 24 25 25 21 17 17 18 17 18 18 16 15 16 17 18 17 15 16 18 18 16 13 11 10 8 6 5 5 4 4 5 5 5 5 5 4 3 2 1 2 3 3 4 5 6 7 8 9 10 11 11
57 55 52 47 45 44 42 40 38 36 33 29 28 28 26 24 20 19 20 18 17 18 17 17 17 18 19 19 17 17 18 20 19 17 15 13 11 10 8 7 6 6 6 7 7 7 6 6 5 4 3 2 1 1 2 2 3 4 5 6 7 9 10
59 58 55 50 47 45 44 43 41 39 35 31 30 28 25 24 21 20 21 19 18 18 19 19 19 19 20 20 19 19 19 20 21 20 19 17 15 14 12 10 9 8 8 9 9 8 8 8 7 6 5 4 3 2 1 0 0 1 2 4 5 6 8
61 60 58 55 52 49 47 45 42 39 36 33 31 29 25 23 21 21 23 22 20 20 20 21 21 20 21 21 21 21 20 20 21 21 22 21 19 18 16 14 13 12 11 11 11 10 10 10 9 9 8 7 6 5 4 3 2 2 2 3 3 5 6
64 62 60 58 55 51 50 47 42 40 39 36 33 31 28 25 21 21 24 26 24 22 22 23 21 21 21 22 23 22 22 22 20 20 21 22 22 21 19 18 17 16 14 14 14 13 12 12 12 11 11 10 9 8 7 6 5 5 4 4 4 5 5
67 65 63 61 58 55 52 49 45 43 41 39 35 32 31 29 25 24 26 28 25 23 23 22 21 22 23 24 25 25 24 23 22 21 20 20 22 22 22 21 20 19 18 17 17 16 15 14 14 14 13 13 12 11 10 9 8 7 7 7 6 6 6
69 67 65 64 62 59 56 53 49 47 45 41 37 34 32 32 30 27 28 32 31 26 22 21 21 25 26 27 27 27 25 25 24 23 22 21 22 22 22 22 22 21 20 20 19 19 18 17 17 16 16 15 15 14 13 12 11 10 9 9 9 8 8
70 68 67 65 64 63 62 59 55 51 48 44 39 35 33 33 31 28 30 36 36 29 27 28 28 27 28 29 30 29 27 27 26 26 25 23 21 21 21 22 22 22 22 22 22 21 21 20 19 19 19 18 18 17 15 14 13 12 11 11 11 10 10
70 69 68 67 66 65 64 63 59 56 53 49 46 40 35 33 32 31 34 38 37 31 28 31 33 31 29 29 30 30 30 30 29 28 27 24 22 22 21 21 21 22 22 23 23 23 23 23 22 21 22 21 20 19 19 17 16 14 13 13 12 12 12
69 69 69 68 67 66 65 64 62 60 57 54 52 47 40 37 35 35 36 38 38 33 29 33 37 34 32 32 31 31 32 32 31 31 29 27 25 25 24 22 21 21 22 22 23 24 24 24 25 24 24 24 23 22 21 20 18 17 16 15 14 14 13
69 69 69 69 69 68 67 65 63 62 59 56 54 51 46 41 37 37 38 38 37 34 31 35 39 37 37 38 34 32 33 34 33 33 33 30 29 30 28 26 24 21 21 21 21 22 24 25 26 27 27 27 26 25 24 22 21 19 18 17 16 15 14
72 71 70 70 69 68 67 66 64 63 61 58 56 54 51 47 41 39 40 37 35 34 35 38 40 39 41 41 36 32 34 36 36 36 36 34 33 34 32 30 26 22 21 21 20 20 21 21 22 24 27 28 28 27 26 25 23 21 20 19 18 17 16
73 72 72 71 70 69 68 67 65 64 63 61 59 58 57 56 52 48 46 42 37 36 39 42 42 41 43 42 37 34 35 38 39 39 39 37 35 34 34 33 31 27 25 24 22 21 20 19 18 18 21 25 28 29 28 26 24 22 21 19 18 18 17
74 73 73 72 72 71 70 68 65 64 63 63 62 62 61 61 61 59 57 53 48 45 46 48 45 44 44 43 39 36 38 40 42 42 41 38 36 35 34 35 35 33 30 27 25 23 22 21 19 18 18 21 24 26 27 26 25 23 21 20 19 19 18
77 75 74 73 72 72 71 69 67 65 65 64 64 64 64 63 64 65 64 61 57 54 53 52 48 47 49 47 43 39 38 40 43 45 42 39 38 37 36 36 36 36 35 31 27 26 26 26 24 22 21 20 20 20 22 24 25 24 22 20 20 19 19
80 78 76 74 73 72 72 71 69 67 66 66 65 65 65 64 65 67 68 64 60 58 58 57 53 51 52 51 47 44 40 40 44 46 44 41 41 40 39 38 37 36 36 34 31 29 30 31 30 28 26 23 20 19 19 21 22 23 22 21 21 20 20
82 80 78 76 75 74 73 72 71 70 68 68 67 66 66 66 65 66 67 66 63 61 61 61 58 57 57 55 52 49 46 46 48 47 46 44 43 41 41 41 40 38 37 36 34 34 35 36 36 33 31 30 26 23 22 21 20 19 19 19 20 20 20
84 82 80 78 77 75 75 74 73 72 71 70 69 68 68 67 67 66 67 67 67 66 64 63 61 61 61 58 56 54 51 50 52 49 47 46 45 43 42 42 41 40 38 37 37 37 38 40 39 36 35 34 32 28 26 24 21 18 17 17 18 19 19
87 84 82 80 78 77 76 75 74 74 73 72 71 71 70 70 69 68 68 68 69 68 67 65 63 62 62 59 57 57 54 53 55 53 50 49 48 45 43 41 39 39 40 40 40 40 41 42 42 40 38 36 35 31 27 23 20 18 16 15 15 17 18
90 88 85 83 81 79 78 77 76 76 75 74 73 73 73 73 71 70 69 69 69 69 69 67 64 63 63 61 59 58 57 56 57 57 54 53 51 49 45 42 39 38 38 39 41 42 43 44 45 43 40 38 37 35 31 25 21 19 18 17 16 16 17
95 92 90 88 85 82 80 79 78 77 77 76 76 75 75 75 73 72 71 70 70 70 70 70 68 66 66 66 64 62 61 59 60 61 59 57 56 53 50 47 44 40 36 36 38 39 42 45 46 45 42 40 39 38 36 31 25 22 21 19 18 18 18
98 96 93 92 90 86 84 83 81 80 79 79 78 78 78 76 75 74 73 72 72 71 71 72 71 70 69 70 69 68 66 63 63 64 63 61 60 59 56 53 50 46 38 33 34 38 42 44 46 46 43 42 41 41 38 34 29 26 24 22 22 21 21
100 99 97 96 93 90 88 87 86 84 83 82 81 80 79 78 77 76 76 75 74 73 73 72 73 73 72 72 72 72 70 67 64 65 65 64 62 62 60 57 55 53 46 39 37 41 42 43 45 46 44 43 43 42 41 37 31 26 25 25 25 25 24
103 102 101 99 96 94 93 92 90 88 87 85 84 83 82 81 80 79 78 77 76 76 75 74 74 74 75 75 75 75 74 71 68 67 67 68 66 64 62 60 58 58 57 53 51 48 45 45 46 47 45 45 44 44 43 39 32 27 28 31 30 29 29
105 105 104 102 100 99 98 96 94 93 91 90 88 87 85 84 84 82 81 80 80 79 78 77 76 75 76 77 77 78 77 75 73 70 70 71 71 69 67 65 63 61 61 61 59 56 52 49 49 49 48 47 46 45 43 40 36 35 40 43 41 38 35
108 107 106 104 103 103 102 100 98 97 95 94 93 92 90 89 88 86 85 84 83 82 81 79 78 77 77 77 78 79 79 79 77 75 74 73 73 74 73 72 71 68 66 64 62 59 57 54 52 51 51 50 48 46 44 43 42 44 48 49 47 46 42
112 111 109 107 106 106 105 104 102 100 99 98 97 96 95 94 92 91 89 88 87 85 84 82 81 80 79 79 79 79 80 81 80 79 78 77 76 76 77 77 76 75 73 70 65 62 60 58 55 54 53 53 52 49 47 46 47 47 47 47 46 46 45
114 114 112 111 110 109 108 107 105 103 102 101 101 100 99 98 97 95 94 92 91 89 87 86 84 83 82 81 81 80 80 81 81 81 81 81 80 79 79 80 80 79 78 76 71 66 63 61 60 58 56 56 56 54 51 49 49 47 45 44 45 45 45
117 116 115 115 114 112 111 110 108 107 106 105 104 104 103 101 100 99 97 96 95 93 91 90 88 86 85 84 83 83 83 82 81 81 82 83 84 83 82 82 83 82 81 80 77 73 68 65 64 63 60 58 59 58 55 52 50 47 43 42 44 47 48
118 118 118 118 117 115 114 113 112 111 110 109 108 107 106 105 104 102 101 99 98 97 95 94 92 91 89 88 86 86 86 84 83 83 84 85 86 86 85 85 85 85 84 83 81 79 76 72 69 67 65 63 62 62 60 56 53 50 47 46 46 47 48
120 120 120 120 120 119 117 116 115 114 113 113 112 111 110 109 108 106 104 103 102 100 99 98 97 96 94 92 90 89 89 88 87 86 86 87 87 88 88 87 87 87 87 86 84 82 80 79 76 73 70 68 67 66 65 61 57 54 53 52 50 47 45
122 123 123 123 122 122 121 120 119 118 117 116 116 115 114 112 111 110 108 107 106 105 104 103 102 100 99 97 95 94 92 91 90 89 89 88 88 89 89 90 90 89 89 89 88 85 83 81 80 78 76 74 72 70 69 67 63 60 58 58 57 54 49
122 123 124 124 124 124 124 123 122 121 121 120 119 118 117 116 114 113 112 111 110 109 109 107 106 105 103 101 100 98 97 95 93 92 91 91 91 91 91 91 92 92 92 91 90 88 86 84 83 82 81 79 77 75 74 73 70 67 65 64 63 62 59
121 123 124 125 126 126 126 126 125 125 124 124 123 122 120 119 118 117 116 115 114 114 113 112 110 109 108 106 104 102 101 100 98 96 94 93 93 93 93 93 93 93 93 93 92 91 90 88 86 85 84 84 82 80 78 77 76 74 72 71 69 68 66
Wind_Direction
228 234 239 239 240 242 240 241 241 236 237 247 247 238 238 245 246 247 251 246 233 229 233 234 226 211 199 198 200 196 185 167 148 143 139 132 128 118 104 95 91 92 91 79 69 62 55 51 53 56 55 56 57 56 55 55 55 55 54 53 53 53 53
230 235 239 239 238 236 238 241 240 236 238 242 239 235 242 253 252 248 251 251 243 233 234 239 239 229 213 203 203 207 207 200 185 169 157 148 143 140 138 134 126 119 115 108 97 87 72 57 55 57 59 59 59 57 56 54 53 52 52 52 51 50 50
231 234 237 237 237 237 239 239 235 234 235 232 229 231 241 255 262 258 257 257 251 242 237 241 245 242 232 215 206 208 213 214 209 198 182 167 159 155 158 168 173 163 148 144 140 130 113 86 67 59 61 63 63 60 58 55 52 49 48 48 48 47 46
230 233 235 235 236 237 237 235 232 231 226 222 224 230 238 248 256 256 258 260 257 251 241 241 247 248 245 236 218 210 211 216 218 215 204 190 182 178 179 188 198 200 188 178 175 172 166 151 121 80 69 69 67 64 61 57 53 48 44 42 41 41 41
230 231 232 233 233 233 233 232 230 226 222 225 231 235 240 245 246 246 250 254 256 254 246 242 246 249 251 249 237 220 213 216 220 219 214 208 207 211 212 212 217 222 217 209 201 195 194 196 190 173 134 91 77 72 67 61 54 47 42 37 34 32 33
230 229 229 227 226 227 228 228 228 228 229 232 236 237 239 242 241 242 247 250 251 252 249 246 246 247 249 250 247 234 221 218 219 219 217 217 220 225 227 227 230 234 235 229 221 215 213 213 214 215 218 210 159 110 83 66 56 44 37 31 27 22 21
230 230 229 225 223 224 227 230 232 232 231 230 232 234 236 238 238 240 245 248 253 256 255 252 248 245 245 247 249 245 233 224 221 220 220 219 221 225 231 234 234 238 243 240 235 232 228 225 226 227 230 234 230 221 216 233 359 13 16 15 13 11 9
230 230 230 229 229 229 231 231 229 229 230 229 229 231 236 240 241 242 244 250 260 267 263 258 254 247 244 247 250 250 246 237 228 224 223 223 223 225 229 234 236 238 242 244 244 241 237 235 233 234 237 241 242 240 239 245 260 282 308 328 340 348 353
230 231 231 231 231 231 230 226 225 230 233 231 229 231 236 241 241 239 241 247 259 266 262 259 258 252 249 250 252 253 253 250 243 234 228 227 227 229 232 235 240 242 243 246 247 246 244 242 240 238 240 243 245 246 246 248 255 266 279 293 303 318 330
230 231 232 232 232 231 228 225 226 230 230 229 230 233 237 239 234 229 231 233 239 249 250 252 256 256 253 252 251 252 252 252 252 248 241 235 232 232 235 239 244 248 249 249 249 249 247 246 245 244 242 244 247 248 249 251 254 259 269 278 287 296 306
229 230 231 232 232 231 229 227 228 229 228 229 232 236 238 238 236 237 236 230 227 227 225 228 241 249 251 249 246 247 249 249 251 251 247 242 237 235 237 241 246 252 254 255 253 251 250 249 248 247 246 246 247 249 251 251 253 256 263 271 279 286 292
230 230 231 231 232 232 231 230 231 230 228 228 232 236 237 237 241 243 240 234 229 220 210 211 223 235 244 246 243 243 246 246 248 251 250 248 245 241 239 240 244 249 254 257 257 254 253 251 251 250 250 250 249 250 251 251 253 255 259 265 272 279 285
230 230 230 230 231 232 232 232 232 231 230 230 234 236 234 237 242 239 233 232 231 227 223 225 231 234 236 239 239 239 241 243 246 250 251 252 252 250 247 244 243 245 249 255 258 258 256 255 253 253 253 253 253 252 252 253 254 256 258 262 267 273 280
229 230 230 230 231 231 232 232 232 232 232 233 236 236 232 232 236 233 228 227 228 229 235 242 246 242 233 231 235 236 238 242 247 248 247 248 249 250 251 249 245 243 243 247 252 256 256 255 253 254 255 256 256 255 256 257 258 260 262 265 268 272 278
227 228 229 229 230 231 231 232 232 233 233 233 233 233 229 227 229 230 228 228 229 229 231 238 244 243 237 234 234 235 238 241 245 247 246 244 242 243 246 247 246 244 242 245 250 252 253 252 250 250 252 255 258 258 259 260 261 264 266 269 272 276 279
226 227 228 229 230 230 231 231 232 232 232 231 230 230 226 221 221 222 222 225 231 233 232 235 237 237 236 234 230 232 238 239 242 245 244 243 241 240 242 244 245 246 246 246 249 253 253 253 252 250 249 251 254 257 260 262 264 267 270 272 275 278 281
225 226 227 228 229 229 230 230 231 231 231 230 228 227 224 219 216 215 213 214 224 230 232 235 235 234 234 231 228 231 235 236 239 242 242 242 243 242 242 244 245 248 249 246 247 251 255 258 261 260 254 251 252 254 256 258 261 266 270 272 274 276 278
226 226 226 227 228 229 229 229 229 229 230 230 228 227 225 221 218 217 215 218 225 229 229 231 232 231 231 231 229 231 235 236 237 239 239 240 242 242 243 244 245 247 249 250 251 253 257 260 264 267 265 259 258 258 258 258 258 260 265 268 270 272 273
229 228 227 228 228 229 229 229 228 228 228 229 228 228 226 223 220 219 220 224 228 228 227 229 230 228 228 231 231 231 235 237 236 236 237 237 238 241 242 243 245 247 247 248 252 254 257 259 260 261 264 266 268 271 272 268 263 259 260 262 266 270 272
230 230 229 229 229 229 230 230 229 228 228 228 228 228 227 225 222 222 223 225 225 225 226 229 230 227 225 228 232 231 231 235 235 235 236 234 235 238 240 242 246 247 245 245 247 251 256 259 259 260 262 267 274 282 284 280 272 265 260 257 259 263 267
230 230 230 230 230 230 230 231 230 229 228 228 228 229 228 227 225 224 224 224 223 223 225 227 229 227 223 225 230 232 233 235 234 234 234 232 232 236 239 242 245 245 245 245 247 252 256 257 258 260 262 265 271 279 286 288 285 279 271 261 257 259 262
231 231 230 230 230 230 231 231 231 231 230 229 229 229 229 228 227 225 225 224 223 224 225 226 228 227 225 225 229 232 234 234 232 231 231 229 231 235 238 241 244 245 246 246 248 254 257 255 255 258 261 262 265 271 278 284 287 286 279 269 263 263 265
230 230 230 230 230 231 231 231 232 232 232 231 230 230 230 230 229 227 226 225 224 224 225 226 226 227 225 225 226 229 232 232 230 229 229 229 232 233 234 237 243 246 249 250 250 253 254 253 253 256 259 259 262 266 271 276 281 280 271 263 259 260 264
230 230 230 230 230 230 230 231 232 233 233 233 232 231 231 231 230 229 228 227 226 225 225 225 225 226 225 223 224 226 229 230 228 226 227 230 231 231 231 234 238 244 249 251 250 251 252 251 252 254 256 256 258 263 266 269 275 274 264 253 247 248 253
230 230 230 230 230 229 229 230 231 232 232 233 233 232 232 232 231 231 230 229 228 227 225 225 225 225 224 224 225 226 228 229 228 226 227 229 230 230 231 232 233 238 245 250 250 249 249 248 248 250 252 253 254 258 261 263 268 272 264 254 246 242 243
229 229 229 230 229 228 228 229 230 230 231 232 233 233 233 233 232 232 232 231 230 229 227 226 226 226 226 226 226 228 229 230 229 228 228 230 230 230 231 231 231 232 237 244 247 245 244 246 247 247 249 250 251 254 257 259 263 267 265 259 252 245 240
229 229 229 229 229 228 228 228 229 229 230 231 232 233 234 234 233 233 233 232 232 231 230 228 227 227 227 227 228 229 230 231 231 231 230 230 230 231 233 232 231 229 229 233 238 241 242 244 245 246 247 248 250 252 253 255 258 262 264 262 256 250 245
228 229 229 229 229 229 229 229 228 228 229 230 231 232 233 234 234 235 235 234 233 232 231 230 229 228 228 228 229 230 231 232 233 234 233 232 231 231 232 233 232 230 230 231 235 240 242 242 243 244 245 247 249 250 250 251 253 257 260 259 256 252 249
229 229 229 229 229 230 230 230 229 229 229 229 230 231 232 233 234 236 236 236 235 234 233 232 231 230 229 229 230 231 232 232 233 235 235 235 234 233 233 233 233 232 233 235 237 239 240 239 241 243 243 244 245 246 246 246 245 244 248 249 248 247 246
229 229 229 229 229 229 230 230 230 230 230 230 231 232 232 232 234 235 236 237 238 236 235 234 233 232 231 230 230 231 232 233 233 234 235 236 236 236 235 235 235 235 236 237 238 238 237 237 239 241 242 242 240 240 241 243 242 242 244 245 245 246 246
230 230 230 230 230 230 230 230 230 231 231 231 232 232 233 233 234 235 236 237 239 239 238 236 235 234 233 232 231 231 232 233 234 234 235 236 236 237 236 236 237 238 238 239 239 237 236 236 237 239 241 241 238 236 237 239 240 242 246 248 248 248 248
229 230 231 230 230 230 231 231 231 231 231 232 232 233 234 234 234 235 236 237 238 240 240 239 238 236 235 234 233 232 232 233 233 234 234 235 236 237 237 236 237 238 239 239 239 238 236 236 235 236 239 241 240 238 236 237 238 241 246 251 251 250 249
229 230 231 231 231 231 231 231 231 231 231 232 232 233 234 234 235 235 236 237 238 239 240 241 240 239 237 236 235 234 233 232 233 234 234 235 235 236 237 236 237 238 239 239 239 238 238 237 236 235 236 239 241 240 238 236 236 238 241 246 249 250 250
229 229 230 231 231 231 231 232 232 232 231 231 232 233 233 234 235 235 236 237 238 239 240 240 241 241 240 239 237 236 235 233 233 233 234 234 234 235 236 237 237 238 239 240 240 239 239 239 237 235 235 236 239 240 239 236 235 235 235 237 242 247 249
229 229 230 231 231 232 232 232 232 232 232 232 232 232 233 234 235 235 236 237 238 238 239 240 241 241 242 241 240 239 237 236 234 234 234 234 234 235 235 236 237 238 238 239 240 240 240 239 238 237 235 234 236 238 239 237 234 233 232 232 235 241 245
230 230 230 230 231 232 232 232 232 232 233 233 233 233 233 234 234 235 236 236 237 238 239 239 240 241 241 242 242 241 240 239 236 235 234 234 235 235 235 236 237 238 238 238 238 239 240 239 238 237 235 234 234 235 237 237 234 232 231 230 232 234 237
230 230 231 231 231 232 232 232 233 233 233 233 234 234 234 234 234 235 235 236 237 237 238 239 240 240 241 241 242 242 242 242 240 237 235 235 235 235 236 236 236 237 238 238 238 238 239 239 238 237 235 234 234 234 236 237 236 234 231 230 231 232 234
231 231 231 231 232 232 232 233 233 233 234 234 234 234 234 235 235 235 235 236 236 237 238 238 239 240 240 241 241 242 242 243 242 241 238 236 235 235 235 236 236 237 237 238 238 239 238 238 238 237 236 234 234 234 234 236 237 237 234 232 232 232 234
Height
10988 10991 10996 11000 11001 11002 11004 11006 11008 11010 11012 11014 11015 11017 11017 11018 11019 11020 11021 11021 11021 11021 11022 11023 11023 11023 11024 11024 11025 11026 11026 11026 11025 11025 11025 11025 11025 11025 11025 11025 11025 11025 11025 11025 11025 11025 11025 11024 11024 11024 11024 11023 11023 11023 11023 11023 11023 11023 11023 11022 11022 11022 11022
10984 10986 10990 10994 10997 11000 11003 11005 11006 11008 11010 11012 11014 11016 11017 11017 11018 11019 11020 11020 11020 11021 11022 11022 11023 11023 11024 11024 11025 11025 11026 11026 11026 11025 11025 11025 11025 11025 11025 11025 11025 11025 11025 11025 11025 11025 11025 11025 11025 11025 11024 11024 11024 11024 11024 11024 11024 11024 11024 11023 11023 11023 11023
10978 10980 10985 10990 10993 10996 11000 11002 11003 11006 11008 11011 11013 11015 11016 11017 11018 11019 11020 11021 11021 11021 11021 11022 11023 11023 11023 11023 11024 11024 11025 11025 11025 11025 11025 11025 11025 11024 11025 11025 11025 11025 11025 11025 11025 11025 11025 11025 11025 11025 11025 11025 11025 11025 11024 11025 11025 11025 11024 11024 11024 11024 11024
10972 10977 10981 10986 10989 10992 10996 10999 11002 11004 11007 11009 11011 11013 11014 11016 11017 11018 11019 11021 11021 11021 11021 11021 11022 11023 11023 11023 11023 11023 11024 11024 11025 11025 11025 11025 11024 11024 11024 11024 11024 11024 11024 11025 11025 11025 11025 11025 11025 11025 11025 11025 11025 11025 11025 11025 11025 11025 11025 11025 11025 11025 11025
10969 10973 10977 10981 10984 10988 10992 10995 10999 11002 11005 11008 11011 11011 11013 11015 11016 11017 11018 11019 11021 11021 11021 11021 11021 11022 11023 11023 11023 11022 11022 11023 11023 11024 11025 11024 11024 11024 11024 11024 11024 11024 11024 11024 11024 11024 11024 11025 11025 11025 11025 11025 11025 11025 11025 11025 11025 11025 11025 11025 11025 11025 11025
10964 10968 10972 10977 10981 10984 10987 10991 10995 10999 11003 11007 11009 11009 11011 11013 11014 11016 11017 11019 11020 11021 11021 11021 11021 11022 11022 11022 11022 11022 11021 11021 11022 11023 11023 11023 11023 11023 11024 11024 11024 11023 11023 11023 11023 11023 11024 11024 11024 11024 11024 11025 11025 11025 11025 11025 11025 11025 11025 11025 11025 11025 11025
10958 10963 10968 10973 10977 10980 10983 10987 10992 10996 11001 11005 11006 11007 11009 11012 11013 11016 11017 11019 11020 11021 11021 11020 11020 11020 11021 11021 11021 11021 11020 11020 11020 11020 11021 11022 11022 11022 11023 11023 11023 11023 11023 11022 11022 11022 11023 11023 11023 11023 11024 11024 11024 11025 11025 11025 11025 11025 11025 11025 11025 11025 11025
10952 10958 10964 10969 10973 10976 10979 10983 10988 10992 10997 11001 11002 11005 11008 11011 11014 11016 11018 11019 11019 11021 11022 11021 11020 11020 11020 11020 11020 11020 11020 11019 11018 11018 11019 11020 11020 11021 11021 11022 11022 11022 11022 11022 11022 11022 11022 11022 11022 11023 11023 11023 11023 11024 11024 11025 11025 11025 11024 11025 11025 11025 11025
10947 10953 10959 10963 10968 10972 10975 10979 10985 10989 10992 10996 10999 11003 11007 11010 11014 11016 11017 11017 11019 11021 11022 11021 11020 11019 11019 11020 11020 11020 11020 11019 11018 11017 11017 11017 11018 11019 11020 11020 11021 11021 11022 11022 11021 11021 11021 11021 11022 11022 11022 11022 11023 11023 11023 11024 11024 11024 11024 11024 11024 11024 11025
10943 10947 10952 10957 10962 10967 10971 10976 10981 10985 10988 10992 10996 11000 11004 11008 11011 11013 11013 11013 11015 11019 11020 11020 11020 11019 11018 11019 11019 11018 11018 11018 11018 11017 11016 11015 11016 11017 11018 11018 11019 11020 11021 11021 11021 11021 11021 11021 11021 11021 11022 11022 11022 11022 11023 11023 11023 11023 11023 11023 11024 11024 11024
10937 10942 10946 10951 10956 10962 10967 10972 10976 10981 10985 10989 10993 10997 11002 11005 11007 11010 11011 11010 11010 11013 11014 11015 11019 11019 11017 11016 11016 11016 11017 11017 11016 11016 11015 11014 11014 11014 11015 11016 11017 11018 11019 11020 11020 11021 11021 11021 11021 11021 11021 11021 11021 11021 11022 11022 11022 11022 11022 11023 11023 11023 11023
10932 10936 10941 10945 10950 10955 10961 10966 10971 10977 10981 10986 10990 10994 10999 11002 11005 11008 11010 11008 11007 11008 11007 11008 11012 11016 11015 11013 11013 11014 11014 11014 11013 11013 11013 11013 11013 11013 11013 11013 11014 11016 11017 11018 11019 11020 11020 11020 11021 11021 11021 11021 11021 11021 11021 11021 11021 11021 11021 11022 11022 11022 11022
10926 10930 10935 10940 10944 10949 10955 10959 10965 10971 10977 10982 10986 10991 10997 11000 11001 11003 11003 11002 11003 11006 11007 11006 11007 11011 11010 11008 11009 11011 11011 11010 11010 11011 11012 11013 11013 11013 11012 11012 11012 11013 11014 11016 11017 11019 11019 11020 11020 11020 11020 11020 11020 11020 11020 11020 11020 11020 11020 11021 11021 11021 11021
10920 10923 10928 10933 10938 10943 10948 10954 10959 10965 10971 10976 10981 10987 10993 10994 10994 10995 10995 10995 10998 11003 11007 11006 11005 11006 11005 11004 11005 11006 11006 11006 11007 11008 11010 11011 11011 11011 11011 11011 11011 11011 11011 11012 11013 11015 11017 11018 11018 11019 11019 11019 11020 11020 11020 11020 11020 11020 11020 11020 11020 11020 11021
10912 10916 10920 10926 10931 10936 10942 10948 10953 10959 10965 10970 10975 10980 10985 10986 10987 10989 10990 10990 10991 10995 10999 11000 10999 11000 11000 11000 11001 11002 11002 11002 11004 11005 11006 11007 11007 11008 11008 11009 11009 11009 11009 11009 11009 11011 11012 11013 11014 11015 11016 11017 11018 11019 11019 11020 11020 11020 11020 11020 11020 11020 11020
10904 10908 10913 10918 10923 10929 10935 10941 10947 10952 10958 10964 10968 10971 10975 10978 10981 10983 10984 10984 10984 10986 10989 10990 10991 10994 10995 10996 10997 10998 10998 10998 10999 11000 11002 11003 11003 11004 11005 11006 11007 11008 11007 11007 11007 11007 11008 11008 11008 11009 11011 11012 11014 11016 11017 11018 11019 11020 11020 11020 11019 11019 11019
10896 10901 10906 10911 10916 10922 10927 10934 10940 10945 10950 10955 10959 10962 10965 10970 10974 10976 10976 10977 10978 10978 10979 10981 10984 10988 10991 10993 10994 10994 10993 10993 10994 10995 10997 10999 11000 11001 11002 11003 11005 11006 11006 11005 11004 11004 11005 11005 11005 11006 11007 11008 11009 11011 11013 11015 11017 11018 11018 11018 11018 11017 11017
10888 10893 10898 10903 10908 10914 10919 10926 10932 10937 10942 10946 10949 10952 10956 10963 10969 10971 10971 10970 10970 10971 10972 10974 10978 10982 10986 10988 10989 10988 10987 10987 10988 10990 10992 10995 10997 10998 11000 11001 11002 11003 11004 11003 11002 11003 11003 11004 11004 11005 11005 11005 11006 11008 11010 11012 11014 11015 11015 11016 11016 11016 11016
10879 10885 10891 10897 10902 10907 10912 10918 10924 10929 10933 10936 10939 10943 10948 10955 10961 10964 10965 10965 10964 10966 10967 10970 10974 10978 10980 10983 10983 10982 10982 10983 10984 10985 10988 10991 10992 10994 10996 10997 10998 10999 11001 11001 11001 11001 11002 11002 11003 11004 11004 11004 11005 11006 11008 11010 11011 11012 11013 11014 11014 11014 11015
10871 10878 10884 10890 10895 10900 10905 10910 10916 10921 10925 10928 10931 10934 10939 10946 10951 10955 10957 10958 10959 10961 10963 10965 10969 10972 10974 10976 10977 10978 10979 10979 10979 10981 10984 10987 10988 10989 10991 10993 10994 10995 10997 10998 10998 10999 11000 11001 11001 11002 11002 11002 11004 11005 11007 11008 11009 11010 11011 11011 11012 11012 11013
10864 10871 10876 10882 10886 10892 10897 10901 10907 10912 10917 10921 10923 10927 10931 10936 10941 10946 10948 10949 10952 10955 10957 10959 10962 10965 10967 10969 10970 10972 10974 10974 10975 10977 10980 10982 10983 10985 10986 10988 10989 10991 10993 10994 10995 10996 10997 10998 10998 11000 11000 11001 11002 11004 11006 11007 11009 11010 11011 11011 11011 11010 11010
10856 10862 10867 10873 10878 10883 10888 10893 10898 10903 10908 10912 10915 10919 10923 10927 10932 10936 10939 10941 10944 10947 10950 10952 10955 10958 10960 10962 10963 10965 10968 10969 10971 10973 10975 10977 10978 10980 10982 10984 10985 10987 10988 10990 10991 10992 10994 10994 10995 10997 10998 10999 11000 11002 11005 11007 11008 11010 11011 11012 11012 11011 11010
10846 10853 10859 10864 10870 10875 10880 10885 10889 10893 10898 10903 10907 10911 10914 10917 10921 10926 10930 10933 10936 10939 10942 10945 10948 10951 10953 10955 10957 10959 10962 10964 10966 10968 10970 10971 10973 10975 10977 10980 10981 10983 10983 10985 10986 10988 10989 10991 10992 10993 10995 10997 10998 11000 11002 11005 11007 11008 11009 11011 11011 11010 11009
10836 10844 10849 10855 10860 10866 10871 10875 10880 10884 10888 10893 10898 10901 10903 10906 10911 10916 10921 10925 10928 10932 10935 10938 10941 10943 10946 10948 10950 10952 10955 10958 10960 10962 10964 10965 10967 10969 10972 10975 10977 10978 10979 10980 10981 10983 10984 10986 10987 10989 10992 10994 10995 10997 11000 11003 11005 11006 11007 11008 11009 11009 11008
10825 10833 10839 10843 10849 10857 10862 10866 10870 10874 10878 10883 10887 10890 10892 10896 10902 10907 10912 10915 10919 10923 10926 10930 10933 10936 10938 10941 10943 10945 10948 10951 10953 10956 10958 10960 10961 10963 10965 10968 10971 10973 10973 10974 10975 10977 10978 10980 10982 10985 10987 10990 10993 10995 10997 11000 11003 11004 11005 11005 11006 11006 11005
10813 10822 10827 10830 10838 10847 10852 10855 10860 10864 10867 10871 10875 10878 10882 10888 10894 10898 10902 10905 10910 10914 10918 10921 10925 10928 10930 10933 10935 10937 10940 10943 10945 10948 10951 10953 10955 10956 10958 10961 10964 10965 10966 10967 10968 10970 10972 10974 10977 10980 10983 10986 10989 10991 10994 10997 11000 11002 11002 11003 11002 11002 11002
10803 10811 10815 10818 10828 10837 10840 10843 10849 10853 10856 10861 10865 10869 10873 10879 10885 10888 10891 10896 10900 10903 10908 10912 10916 10919 10922 10925 10927 10929 10932 10935 10937 10940 10943 10946 10948 10950 10952 10954 10956 10957 10959 10960 10962 10963 10966 10969 10972 10975 10978 10982 10985 10988 10990 10993 10997 10999 11000 10999 10998 10998 10998
10793 10798 10802 10808 10818 10824 10826 10831 10837 10843 10846 10851 10856 10859 10863 10869 10873 10877 10881 10886 10889 10893 10898 10902 10906 10910 10913 10916 10919 10921 10924 10927 10930 10931 10934 10937 10940 10943 10945 10947 10949 10950 10952 10954 10956 10958 10961 10964 10966 10969 10973 10977 10980 10983 10985 10989 10994 10997 10996 10993 10992 10991 10992
10781 10785 10789 10798 10807 10811 10813 10819 10826 10831 10836 10841 10845 10849 10853 10858 10862 10866 10870 10875 10879 10883 10887 10892 10896 10900 10904 10907 10910 10913 10916 10919 10922 10924 10926 10928 10932 10935 10937 10940 10942 10944 10945 10947 10950 10953 10956 10959 10961 10963 10967 10971 10975 10978 10980 10984 10987 10986 10982 10980 10980 10982 10984
10768 10772 10777 10787 10795 10797 10800 10807 10815 10820 10826 10831 10835 10839 10843 10847 10851 10855 10860 10864 10867 10872 10877 10881 10886 10890 10894 10898 10901 10905 10907 10910 10913 10916 10918 10920 10923 10926 10928 10931 10934 10937 10939 10941 10943 10947 10950 10953 10955 10957 10960 10964 10969 10972 10975 10977 10977 10974 10970 10970 10972 10975 10979
10754 10759 10767 10776 10782 10785 10789 10796 10804 10810 10815 10819 10823 10827 10831 10836 10840 10844 10849 10853 10857 10861 10866 10871 10875 10880 10884 10888 10892 10896 10898 10901 10905 10907 10909 10912 10915 10916 10919 10922 10926 10929 10932 10934 10937 10940 10944 10947 10949 10951 10954 10957 10961 10965 10968 10969 10969 10968 10967 10968 10970 10972 10975
10743 10748 10756 10763 10768 10772 10777 10784 10792 10799 10803 10807 10811 10815 10819 10824 10829 10833 10838 10842 10846 10851 10855 10860 10864 10869 10873 10878 10882 10886 10888 10891 10895 10898 10901 10903 10905 10906 10910 10914 10917 10920 10923 10926 10929 10933 10936 10940 10943 10946 10948 10950 10953 10957 10960 10962 10963 10964 10966 10967 10968 10969 10970
10732 10737 10743 10748 10754 10760 10766 10773 10780 10785 10790 10794 10799 10804 10808 10812 10817 10822 10827 10831 10836 10840 10845 10849 10853 10858 10862 10867 10871 10874 10877 10881 10886 10890 10891 10892 10894 10897 10901 10904 10907 10910 10913 10917 10921 10925 10929 10932 10936 10939 10942 10944 10946 10949 10953 10955 10957 10960 10962 10963 10962 10962 10963
10720 10725 10729 10734 10740 10747 10753 10760 10765 10770 10776 10781 10786 10791 10795 10800 10805 10811 10816 10820 10825 10830 10834 10838 10842 10846 10850 10854 10859 10862 10865 10871 10877 10879 10879 10880 10883 10887 10891 10894 10897 10901 10904 10907 10912 10916 10920 10924 10928 10932 10935 10937 10939 10941 10945 10948 10951 10953 10954 10953 10952 10952 10954
10706 10710 10715 10720 10726 10732 10739 10745 10751 10756 10762 10767 10772 10776 10782 10787 10793 10799 10804 10809 10813 10818 10822 10826 10830 10834 10837 10841 10846 10850 10854 10859 10864 10866 10868 10871 10874 10878 10881 10885 10888 10891 10894 10897 10902 10906 10910 10915 10919 10923 10927 10929 10932 10934 10936 10940 10943 10945 10946 10946 10944 10944 10946
10690 10695 10701 10707 10712 10718 10724 10731 10737 10742 10746 10751 10756 10762 10769 10775 10780 10786 10791 10796 10801 10805 10809 10812 10816 10820 10824 10829 10834 10838 10841 10845 10850 10855 10860 10862 10865 10868 10871 10874 10877 10880 10882 10886 10891 10896 10900 10905 10909 10914 10918 10921 10923 10926 10928 10931 10934 10937 10939 10939 10938 10939 10940
10675 10681 10687 10693 10699 10705 10711 10717 10722 10727 10731 10736 10742 10748 10754 10761 10767 10773 10778 10783 10787 10791 10794 10798 10802 10806 10811 10817 10822 10826 10829 10833 10838 10843 10848 10851 10854 10857 10860 10862 10865 10869 10872 10877 10882 10887 10891 10895 10899 10904 10908 10911 10914 10917 10919 10921 10925 10929 10930 10931 10931 10932 10934
10661 10667 10674 10680 10686 10692 10697 10702 10707 10711 10716 10721 10727 10733 10739 10746 10753 10759 10763 10767 10772 10775 10779 10784 10788 10793 10798 10804 10809 10813 10817 10821 10824 10828 10833 10838 10842 10845 10848 10851 10855 10859 10863 10868 10872 10875 10879 10883 10887 10892 10897 10901 10904 10907 10909 10912 10915 10918 10920 10922 10924 10926 10927